Data No.,UTC Date,UTC Time,Latitude,Longitude,Course(deg),Temp(degC),Sal(psu)
2816,2012/2/6,6:27:00,34-29.8600N,137-03.0800E,157,12.066,33.9513
2817,2012/2/6,6:28:00,34-29.6700N,137-03.1600E,160,12.159,33.9808
2818,2012/2/6,6:29:00,34-29.4900N,137-03.2300E,164,12.439,34.0039
2819,2012/2/6,6:30:00,34-29.3100N,137-03.2800E,166,12.832,34.0489
2820,2012/2/6,6:31:00,34-29.1300N,137-03.3400E,166,13.705,34.143
2821,2012/2/6,6:32:00,34-28.9400N,137-03.3900E,167,14.14,34.3186
2822,2012/2/6,6:33:00,34-28.7500N,137-03.4400E,171,14.306,34.4861
2823,2012/2/6,6:34:00,34-28.5600N,137-03.4600E,175,14.416,34.5515
2824,2012/2/6,6:35:00,34-28.3600N,137-03.4800E,177,14.533,34.5804
2825,2012/2/6,6:36:00,34-28.1700N,137-03.4800E,179,14.57,34.6038
2826,2012/2/6,6:37:00,34-27.9700N,137-03.4900E,179,14.583,34.6119
2827,2012/2/6,6:38:00,34-27.7700N,137-03.4800E,179,14.582,34.6134
2828,2012/2/6,6:39:00,34-27.5700N,137-03.4900E,179,14.606,34.606
2829,2012/2/6,6:40:00,34-27.3700N,137-03.4900E,179,14.632,34.604
2830,2012/2/6,6:41:00,34-27.1600N,137-03.4900E,179,14.676,34.6051
2831,2012/2/6,6:42:00,34-26.9600N,137-03.4900E,180,14.757,34.6101
2832,2012/2/6,6:43:00,34-26.7500N,137-03.4900E,180,14.813,34.6226
2833,2012/2/6,6:44:00,34-26.5500N,137-03.4800E,180,14.853,34.6311
2834,2012/2/6,6:45:00,34-26.3400N,137-03.4800E,180,14.892,34.6382
2835,2012/2/6,6:46:00,34-26.1300N,137-03.4800E,180,14.926,34.644
2836,2012/2/6,6:47:00,34-25.9200N,137-03.4800E,180,14.961,34.6475
2837,2012/2/6,6:48:00,34-25.7000N,137-03.4700E,180,14.992,34.6508
2838,2012/2/6,6:49:00,34-25.4900N,137-03.4700E,180,15.046,34.6522
2839,2012/2/6,6:50:00,34-25.2800N,137-03.4700E,180,15.099,34.6554
2840,2012/2/6,6:51:00,34-25.0700N,137-03.4700E,180,15.154,34.6557
2841,2012/2/6,6:52:00,34-24.8400N,137-03.4700E,180,15.198,34.6578
2842,2012/2/6,6:53:00,34-24.6300N,137-03.4700E,180,15.225,34.6579
2843,2012/2/6,6:54:00,34-24.4100N,137-03.4700E,179,15.246,34.6601
2844,2012/2/6,6:55:00,34-24.1900N,137-03.4700E,179,15.238,34.6625
2845,2012/2/6,6:56:00,34-23.9800N,137-03.4700E,179,15.236,34.6624
2846,2012/2/6,6:57:00,34-23.7500N,137-03.4700E,179,15.228,34.663
2847,2012/2/6,6:58:00,34-23.5400N,137-03.4800E,179,15.246,34.6617
2848,2012/2/6,6:59:00,34-23.3200N,137-03.4800E,179,15.313,34.6617
2849,2012/2/6,7:00:00,34-23.1100N,137-03.4800E,179,15.352,34.6644
2850,2012/2/6,7:01:00,34-22.8800N,137-03.4800E,179,15.399,34.6645
2851,2012/2/6,7:02:00,34-22.6600N,137-03.4800E,179,15.427,34.6667
2852,2012/2/6,7:03:00,34-22.4500N,137-03.4900E,179,15.443,34.6674
2853,2012/2/6,7:04:00,34-22.2200N,137-03.4900E,179,15.434,34.6663
2854,2012/2/6,7:05:00,34-22.0000N,137-03.5100E,174,15.437,34.6607
2855,2012/2/6,7:06:00,34-21.7900N,137-03.5400E,172,15.5,34.6553
2856,2012/2/6,7:07:00,34-21.5700N,137-03.5800E,172,15.57,34.6549
2857,2012/2/6,7:08:00,34-21.3500N,137-03.6200E,172,15.634,34.6599
2858,2012/2/6,7:09:00,34-21.1300N,137-03.6400E,175,15.67,34.6645
2859,2012/2/6,7:10:00,34-20.9100N,137-03.6600E,177,15.713,34.6643
2860,2012/2/6,7:11:00,34-20.6900N,137-03.6600E,180,15.739,34.6591
2861,2012/2/6,7:12:00,34-20.4700N,137-03.6500E,181,15.753,34.6642
2862,2012/2/6,7:13:00,34-20.2500N,137-03.6400E,182,15.755,34.6691
2863,2012/2/6,7:14:00,34-20.0300N,137-03.6300E,182,15.74,34.6723
2864,2012/2/6,7:15:00,34-19.8000N,137-03.6200E,182,15.713,34.6751
2865,2012/2/6,7:16:00,34-19.5900N,137-03.6100E,182,15.677,34.6758
2866,2012/2/6,7:17:00,34-19.3600N,137-03.6000E,182,15.638,34.6758
2867,2012/2/6,7:18:00,34-19.1300N,137-03.5900E,182,15.616,34.6737
2868,2012/2/6,7:19:00,34-18.9100N,137-03.5700E,182,15.608,34.6737
2869,2012/2/6,7:20:00,34-18.6900N,137-03.5600E,182,15.6,34.6725
2870,2012/2/6,7:21:00,34-18.4700N,137-03.5500E,182,15.593,34.6728
2871,2012/2/6,7:22:00,34-18.2500N,137-03.5400E,182,15.587,34.6737
2872,2012/2/6,7:23:00,34-18.0300N,137-03.5200E,182,15.576,34.6739
2873,2012/2/6,7:24:00,34-17.8100N,137-03.5000E,182,15.562,34.6737
2874,2012/2/6,7:25:00,34-17.5900N,137-03.5000E,181,15.549,34.6725
2875,2012/2/6,7:26:00,34-17.3700N,137-03.4900E,180,15.54,34.6711
2876,2012/2/6,7:27:00,34-17.1400N,137-03.4900E,180,15.536,34.6713
2877,2012/2/6,7:28:00,34-16.9300N,137-03.4900E,179,15.532,34.6706
2878,2012/2/6,7:29:00,34-16.7000N,137-03.4900E,179,15.529,34.6705
2879,2012/2/6,7:30:00,34-16.4800N,137-03.4900E,180,15.532,34.6711
2880,2012/2/6,7:31:00,34-16.2600N,137-03.4900E,180,15.53,34.6717
2881,2012/2/6,7:32:00,34-16.0400N,137-03.5000E,179,15.526,34.6706
2882,2012/2/6,7:33:00,34-15.8200N,137-03.5000E,180,15.53,34.6717
2883,2012/2/6,7:34:00,34-15.5900N,137-03.5000E,179,15.524,34.6722
2884,2012/2/6,7:35:00,34-15.3700N,137-03.5000E,179,15.523,34.672
2885,2012/2/6,7:36:00,34-15.1500N,137-03.5000E,179,15.522,34.6736
2886,2012/2/6,7:37:00,34-14.9200N,137-03.5000E,180,15.519,34.6723
2887,2012/2/6,7:38:00,34-14.7000N,137-03.5000E,180,15.521,34.6732
2888,2012/2/6,7:39:00,34-14.4800N,137-03.4900E,179,15.518,34.6729
2889,2012/2/6,7:40:00,34-14.2500N,137-03.4900E,180,15.517,34.6741
2890,2012/2/6,7:41:00,34-14.0300N,137-03.4900E,180,15.515,34.6728
2891,2012/2/6,7:42:00,34-13.8100N,137-03.4900E,180,15.515,34.6728
2892,2012/2/6,7:43:00,34-13.5900N,137-03.4900E,180,15.512,34.6745
2893,2012/2/6,7:44:00,34-13.3500N,137-03.4800E,180,15.516,34.6734
2894,2012/2/6,7:45:00,34-13.1300N,137-03.4800E,180,15.566,34.6739
2895,2012/2/6,7:46:00,34-12.9100N,137-03.4800E,180,15.608,34.677
2896,2012/2/6,7:47:00,34-12.6900N,137-03.4800E,180,15.651,34.6824
2897,2012/2/6,7:48:00,34-12.4700N,137-03.4800E,180,15.698,34.6871
2898,2012/2/6,7:49:00,34-12.2500N,137-03.4700E,181,15.755,34.6903
2899,2012/2/6,7:50:00,34-12.0300N,137-03.4700E,180,15.79,34.6944
2900,2012/2/6,7:51:00,34-11.8000N,137-03.4700E,180,15.827,34.6968
2901,2012/2/6,7:52:00,34-11.5800N,137-03.4700E,180,15.872,34.6986
2902,2012/2/6,7:53:00,34-11.3600N,137-03.4600E,179,15.907,34.6994
2903,2012/2/6,7:54:00,34-11.1300N,137-03.4500E,183,15.937,34.7002
2904,2012/2/6,7:55:00,34-10.9100N,137-03.4300E,184,15.963,34.7018
2905,2012/2/6,7:56:00,34-10.6900N,137-03.4100E,186,15.991,34.7014
2906,2012/2/6,7:57:00,34-10.4600N,137-03.3800E,187,16.01,34.7014
2907,2012/2/6,7:58:00,34-10.2500N,137-03.3400E,188,16.039,34.703
2908,2012/2/6,7:59:00,34-10.0300N,137-03.2900E,192,16.061,34.7029
2909,2012/2/6,8:00:00,34-09.8100N,137-03.2200E,195,16.076,34.7053
2910,2012/2/6,8:01:00,34-09.6000N,137-03.1500E,196,16.091,34.7045
2911,2012/2/6,8:02:00,34-09.3800N,137-03.0600E,197,16.113,34.7034
2912,2012/2/6,8:03:00,34-09.1600N,137-02.9800E,198,16.125,34.7044
2913,2012/2/6,8:04:00,34-08.9600N,137-02.8900E,198,16.142,34.7025
2914,2012/2/6,8:05:00,34-08.7400N,137-02.8000E,199,16.171,34.6988
2915,2012/2/6,8:06:00,34-08.5300N,137-02.7200E,198,16.199,34.6953
2916,2012/2/6,8:07:00,34-08.3000N,137-02.6200E,198,16.22,34.6958
2917,2012/2/6,8:08:00,34-08.0900N,137-02.5400E,198,16.235,34.697
2918,2012/2/6,8:09:00,34-07.8800N,137-02.4500E,198,16.237,34.6974
2919,2012/2/6,8:10:00,34-07.6700N,137-02.3600E,199,16.236,34.6975
2920,2012/2/6,8:11:00,34-07.4600N,137-02.3000E,192,16.241,34.6975
2921,2012/2/6,8:12:00,34-07.2400N,137-02.2600E,187,16.252,34.6992
2922,2012/2/6,8:13:00,34-07.0300N,137-02.2300E,184,16.263,34.6991
2923,2012/2/6,8:14:00,34-06.8200N,137-02.2200E,184,16.287,34.6997
2924,2012/2/6,8:15:00,34-06.6000N,137-02.2000E,184,16.309,34.6996
2925,2012/2/6,8:16:00,34-06.3900N,137-02.1800E,183,16.329,34.7023
2926,2012/2/6,8:17:00,34-06.1800N,137-02.1600E,184,16.408,34.7032
2927,2012/2/6,8:18:00,34-05.9600N,137-02.1400E,185,16.495,34.7025
2928,2012/2/6,8:19:00,34-05.7500N,137-02.1200E,184,16.555,34.7023
2929,2012/2/6,8:20:00,34-05.5300N,137-02.1000E,184,16.617,34.702
2930,2012/2/6,8:21:00,34-05.3200N,137-02.0800E,185,16.657,34.7015
2931,2012/2/6,8:22:00,34-05.1100N,137-02.0500E,185,16.696,34.7003
2932,2012/2/6,8:23:00,34-04.8900N,137-02.0300E,186,16.729,34.6983
2933,2012/2/6,8:24:00,34-04.6700N,137-02.0000E,185,16.734,34.6978
2934,2012/2/6,8:25:00,34-04.4600N,137-01.9800E,185,16.71,34.6962
2935,2012/2/6,8:26:00,34-04.2500N,137-01.9600E,183,16.616,34.6951
2936,2012/2/6,8:27:00,34-04.0300N,137-01.9500E,182,16.334,34.6904
2937,2012/2/6,8:28:00,34-03.8200N,137-01.9400E,181,15.98,34.6779
2938,2012/2/6,8:29:00,34-03.6000N,137-01.9300E,181,15.651,34.6643
2939,2012/2/6,8:30:00,34-03.3900N,137-01.9200E,182,15.448,34.6547
2940,2012/2/6,8:31:00,34-03.1800N,137-01.9100E,182,15.357,34.6566
2941,2012/2/6,8:32:00,34-02.9400N,137-01.9000E,180,15.295,34.655
2942,2012/2/6,8:33:00,34-02.7200N,137-01.9000E,181,15.259,34.6535
2943,2012/2/6,8:34:00,34-02.4900N,137-01.8900E,180,15.224,34.6522
2944,2012/2/6,8:35:00,34-02.2800N,137-01.8900E,181,15.184,34.6535
2945,2012/2/6,8:36:00,34-02.0500N,137-01.8900E,179,15.149,34.6531
2946,2012/2/6,8:37:00,34-01.8300N,137-01.8900E,179,15.141,34.6528
2947,2012/2/6,8:38:00,34-01.6000N,137-01.8900E,179,15.137,34.6538
2948,2012/2/6,8:39:00,34-01.3800N,137-01.9000E,179,15.131,34.6554
2949,2012/2/6,8:40:00,34-01.1500N,137-01.9000E,178,15.116,34.6581
2950,2012/2/6,8:41:00,34-00.9300N,137-01.9000E,179,15.098,34.6573
2951,2012/2/6,8:42:00,34-00.7000N,137-01.9200E,175,15.257,34.6567
2952,2012/2/6,8:43:00,34-00.4800N,137-01.9400E,174,15.625,34.6572
2953,2012/2/6,8:44:00,34-00.2500N,137-01.9600E,175,15.809,34.6625
2954,2012/2/6,8:45:00,34-00.0200N,137-01.9800E,176,15.873,34.6648
2955,2012/2/6,8:46:00,33-59.7900N,137-02.0000E,176,15.911,34.6656
2956,2012/2/6,8:47:00,33-59.5500N,137-02.0200E,176,15.935,34.6643
2957,2012/2/6,8:48:00,33-59.3200N,137-02.0300E,176,15.992,34.6637
2958,2012/2/6,8:49:00,33-59.0900N,137-02.0600E,174,16.173,34.6623
2959,2012/2/6,8:50:00,33-58.8600N,137-02.0800E,175,16.358,34.6667
2960,2012/2/6,8:51:00,33-58.6300N,137-02.1000E,176,16.476,34.6769
2961,2012/2/6,8:52:00,33-58.4100N,137-02.1300E,169,16.559,34.6827
2962,2012/2/6,8:53:00,33-58.2100N,137-02.2300E,153,16.614,34.6854
2963,2012/2/6,8:54:00,33-58.0100N,137-02.3600E,150,16.655,34.6884
2964,2012/2/6,8:55:00,33-57.8100N,137-02.4900E,152,16.685,34.6888
2965,2012/2/6,8:56:00,33-57.6000N,137-02.6200E,153,16.69,34.6886
2966,2012/2/6,8:57:00,33-57.3900N,137-02.7400E,154,16.683,34.6897
2967,2012/2/6,8:58:00,33-57.1800N,137-02.8600E,155,16.688,34.6892
2968,2012/2/6,8:59:00,33-56.9700N,137-02.9700E,157,16.689,34.689
2969,2012/2/6,9:00:00,33-56.7500N,137-03.0700E,159,16.705,34.6879
2970,2012/2/6,9:01:00,33-56.5300N,137-03.1700E,160,16.707,34.6877
2971,2012/2/6,9:02:00,33-56.3200N,137-03.2500E,163,16.7,34.6873
2972,2012/2/6,9:03:00,33-56.1000N,137-03.3200E,166,16.716,34.6865
2973,2012/2/6,9:04:00,33-55.8800N,137-03.3700E,170,16.729,34.6864
2974,2012/2/6,9:05:00,33-55.6600N,137-03.4000E,174,16.748,34.6863
2975,2012/2/6,9:06:00,33-55.4400N,137-03.4200E,178,16.762,34.686
2976,2012/2/6,9:07:00,33-55.2200N,137-03.4200E,178,16.778,34.6858
2977,2012/2/6,9:08:00,33-55.0000N,137-03.4100E,184,16.798,34.6855
2978,2012/2/6,9:09:00,33-54.7900N,137-03.3800E,185,16.822,34.686
2979,2012/2/6,9:10:00,33-54.5800N,137-03.3500E,190,16.843,34.685
2980,2012/2/6,9:11:00,33-54.3700N,137-03.3000E,192,16.875,34.6873
2981,2012/2/6,9:12:00,33-54.1700N,137-03.2400E,194,16.893,34.6884
2982,2012/2/6,9:13:00,33-53.9800N,137-03.1700E,196,16.914,34.6886
2983,2012/2/6,9:14:00,33-53.7700N,137-03.0900E,197,16.93,34.6902
2984,2012/2/6,9:15:00,33-53.5600N,137-03.0200E,196,16.943,34.6896
2985,2012/2/6,9:16:00,33-53.3500N,137-02.9600E,194,16.952,34.69
2986,2012/2/6,9:17:00,33-53.1400N,137-02.8900E,196,16.964,34.6916
2987,2012/2/6,9:18:00,33-52.9400N,137-02.8200E,196,16.968,34.69
2988,2012/2/6,9:19:00,33-52.7300N,137-02.7500E,194,16.98,34.6901
2989,2012/2/6,9:20:00,33-52.5200N,137-02.6800E,197,16.988,34.6888
2990,2012/2/6,9:21:00,33-52.3200N,137-02.5900E,202,16.994,34.6899
2991,2012/2/6,9:22:00,33-52.1300N,137-02.4800E,206,17.001,34.6871
2992,2012/2/6,9:23:00,33-51.9600N,137-02.3600E,212,17.011,34.6878
2993,2012/2/6,9:24:00,33-51.7900N,137-02.2200E,213,17.024,34.6887
2994,2012/2/6,9:25:00,33-51.6100N,137-02.0800E,215,17.035,34.6903
2995,2012/2/6,9:26:00,33-51.4400N,137-01.9200E,217,17.047,34.6923
2996,2012/2/6,9:27:00,33-51.2700N,137-01.7600E,218,17.058,34.6936
2997,2012/2/6,9:28:00,33-51.1100N,137-01.6100E,217,17.077,34.6932
2998,2012/2/6,9:29:00,33-50.9500N,137-01.4600E,217,17.089,34.6952
2999,2012/2/6,9:30:00,33-50.7800N,137-01.3000E,217,17.096,34.6966
3000,2012/2/6,9:31:00,33-50.6200N,137-01.1500E,218,17.098,34.6964
3001,2012/2/6,9:32:00,33-50.4600N,137-00.9900E,219,17.106,34.6953
3002,2012/2/6,9:33:00,33-50.3000N,137-00.8300E,220,17.106,34.6941
3003,2012/2/6,9:34:00,33-50.1300N,137-00.6700E,219,17.111,34.6953
3004,2012/2/6,9:35:00,33-49.9700N,137-00.5000E,218,17.115,34.6935
3005,2012/2/6,9:36:00,33-49.8000N,137-00.3400E,219,17.12,34.6941
3006,2012/2/6,9:37:00,33-49.6400N,137-00.1800E,219,17.116,34.6946
3007,2012/2/6,9:38:00,33-49.4700N,137-00.0100E,219,17.12,34.6931
3008,2012/2/6,9:39:00,33-49.3000N,136-59.8500E,219,17.122,34.6925
3009,2012/2/6,9:40:00,33-49.1300N,136-59.6800E,220,17.127,34.6922
3010,2012/2/6,9:41:00,33-48.9700N,136-59.5200E,219,17.13,34.6923
3011,2012/2/6,9:42:00,33-48.8100N,136-59.3500E,220,17.132,34.6914
3012,2012/2/6,9:43:00,33-48.6500N,136-59.2000E,218,17.135,34.6921
3013,2012/2/6,9:44:00,33-48.4900N,136-59.0400E,219,17.134,34.6926
3014,2012/2/6,9:45:00,33-48.3100N,136-58.8600E,219,17.127,34.6924
3015,2012/2/6,9:46:00,33-48.1400N,136-58.7000E,219,17.124,34.6917
3016,2012/2/6,9:47:00,33-47.9800N,136-58.5300E,221,17.126,34.6908
3017,2012/2/6,9:48:00,33-47.8200N,136-58.3600E,219,17.121,34.6919
3018,2012/2/6,9:49:00,33-47.6500N,136-58.2000E,216,17.118,34.6916
3019,2012/2/6,9:50:00,33-47.4700N,136-58.0400E,216,17.121,34.6918
3020,2012/2/6,9:51:00,33-47.3000N,136-57.8800E,217,17.126,34.6921
3021,2012/2/6,9:52:00,33-47.1300N,136-57.7200E,218,17.118,34.6944
3022,2012/2/6,9:53:00,33-46.9600N,136-57.5700E,217,17.114,34.6929
3023,2012/2/6,9:54:00,33-46.7800N,136-57.4000E,217,17.117,34.6932
3024,2012/2/6,9:55:00,33-46.6000N,136-57.2400E,217,17.112,34.6942
3025,2012/2/6,9:56:00,33-46.4400N,136-57.0800E,218,17.111,34.6921
3026,2012/2/6,9:57:00,33-46.2600N,136-56.9200E,217,17.109,34.692
3027,2012/2/6,9:58:00,33-46.0900N,136-56.7600E,217,17.116,34.692
3028,2012/2/6,9:59:00,33-45.9200N,136-56.6000E,218,17.113,34.694
3029,2012/2/6,10:00:00,33-45.7600N,136-56.4300E,220,17.11,34.6962
3030,2012/2/6,10:01:00,33-45.5900N,136-56.2700E,217,17.107,34.6978
3031,2012/2/6,10:02:00,33-45.4100N,136-56.1100E,218,17.104,34.6976
3032,2012/2/6,10:03:00,33-45.2400N,136-55.9400E,218,17.107,34.6982
3033,2012/2/6,10:04:00,33-45.0800N,136-55.7800E,218,17.108,34.6993
3034,2012/2/6,10:05:00,33-44.9200N,136-55.6200E,219,17.102,34.7
3035,2012/2/6,10:06:00,33-44.7500N,136-55.4600E,218,17.096,34.7
3036,2012/2/6,10:07:00,33-44.5800N,136-55.3000E,219,17.093,34.7008
3037,2012/2/6,10:08:00,33-44.4100N,136-55.1300E,218,17.087,34.7009
3038,2012/2/6,10:09:00,33-44.2500N,136-54.9700E,218,17.084,34.7001
3039,2012/2/6,10:10:00,33-44.0700N,136-54.7900E,220,17.074,34.7005
3040,2012/2/6,10:11:00,33-43.9000N,136-54.6300E,220,17.07,34.6996
3041,2012/2/6,10:12:00,33-43.7400N,136-54.4600E,220,17.069,34.7005
3042,2012/2/6,10:13:00,33-43.5900N,136-54.2900E,221,17.065,34.7003
3043,2012/2/6,10:14:00,33-43.4200N,136-54.1300E,220,17.058,34.7
3044,2012/2/6,10:15:00,33-43.2600N,136-53.9600E,220,17.054,34.6985
3045,2012/2/6,10:16:00,33-43.1000N,136-53.7900E,221,17.054,34.6969
3046,2012/2/6,10:17:00,33-42.9400N,136-53.6400E,217,17.05,34.697
3047,2012/2/6,10:18:00,33-42.7700N,136-53.5000E,214,17.053,34.6949
3048,2012/2/6,10:19:00,33-42.6000N,136-53.3600E,211,17.051,34.6958
3049,2012/2/6,10:20:00,33-42.4200N,136-53.2500E,208,17.054,34.6949
3050,2012/2/6,10:21:00,33-42.2400N,136-53.1300E,206,17.051,34.6962
3051,2012/2/6,10:22:00,33-42.0500N,136-53.0300E,201,17.047,34.6964
3052,2012/2/6,10:23:00,33-41.8600N,136-52.9400E,201,17.056,34.6941
3053,2012/2/6,10:24:00,33-41.6600N,136-52.8400E,201,17.057,34.6934
3054,2012/2/6,10:25:00,33-41.4700N,136-52.7500E,200,17.066,34.6937
3055,2012/2/6,10:26:00,33-41.2700N,136-52.6600E,199,17.059,34.6953
3056,2012/2/6,10:27:00,33-41.0700N,136-52.5800E,199,17.062,34.6956
3057,2012/2/6,10:28:00,33-40.8700N,136-52.4900E,199,17.057,34.6956
3058,2012/2/6,10:29:00,33-40.6800N,136-52.4200E,197,17.054,34.6945
3059,2012/2/6,10:30:00,33-40.4800N,136-52.3500E,196,17.052,34.6945
3060,2012/2/6,10:31:00,33-40.2800N,136-52.2800E,195,17.05,34.6915
3061,2012/2/6,10:32:00,33-40.0800N,136-52.2100E,196,17.047,34.6922
3062,2012/2/6,10:33:00,33-39.8700N,136-52.1400E,195,17.048,34.6891
3063,2012/2/6,10:34:00,33-39.6700N,136-52.0700E,196,17.047,34.6881
3064,2012/2/6,10:35:00,33-39.4700N,136-51.9900E,195,17.053,34.6843
3065,2012/2/6,10:36:00,33-39.2700N,136-51.9400E,193,17.051,34.6822
3066,2012/2/6,10:37:00,33-39.0800N,136-51.8800E,195,17.046,34.6844
3067,2012/2/6,10:38:00,33-38.8900N,136-51.8100E,196,17.046,34.6773
3068,2012/2/6,10:39:00,33-38.6900N,136-51.7400E,196,17.057,34.6725
3069,2012/2/6,10:40:00,33-38.5000N,136-51.6700E,195,17.061,34.6801
3070,2012/2/6,10:41:00,33-38.3100N,136-51.6000E,196,17.064,34.6779
3071,2012/2/6,10:42:00,33-38.1200N,136-51.5400E,196,17.071,34.6807
3072,2012/2/6,10:43:00,33-37.9300N,136-51.4700E,196,17.077,34.6818
3073,2012/2/6,10:44:00,33-37.7300N,136-51.4000E,195,17.078,34.6805
3074,2012/2/6,10:45:00,33-37.5400N,136-51.3300E,198,17.078,34.6719
3075,2012/2/6,10:46:00,33-37.3500N,136-51.2600E,197,17.095,34.6693
3076,2012/2/6,10:47:00,33-37.1600N,136-51.1800E,197,17.107,34.6762
3077,2012/2/6,10:48:00,33-36.9700N,136-51.1200E,196,17.105,34.6823
3078,2012/2/6,10:49:00,33-36.7800N,136-51.0500E,198,17.106,34.6804
3079,2012/2/6,10:50:00,33-36.5900N,136-50.9700E,197,17.106,34.6752
3080,2012/2/6,10:51:00,33-36.4100N,136-50.9000E,196,17.117,34.6678
3081,2012/2/6,10:52:00,33-36.2200N,136-50.8300E,197,17.115,34.6791
3082,2012/2/6,10:53:00,33-36.0400N,136-50.7600E,197,17.112,34.6773
3083,2012/2/6,10:54:00,33-35.8500N,136-50.6900E,197,17.123,34.6635
3084,2012/2/6,10:55:00,33-35.6700N,136-50.6200E,198,17.121,34.6723
3085,2012/2/6,10:56:00,33-35.4600N,136-50.5400E,196,17.126,34.6689
3086,2012/2/6,10:57:00,33-35.2700N,136-50.4700E,197,17.119,34.6774
3087,2012/2/6,10:58:00,33-35.0800N,136-50.4000E,198,17.124,34.6656
3088,2012/2/6,10:59:00,33-34.9000N,136-50.3300E,196,17.123,34.665
3089,2012/2/6,11:00:00,33-34.7100N,136-50.2600E,197,17.129,34.6721
3090,2012/2/6,11:01:00,33-34.5300N,136-50.1900E,199,17.127,34.658
3091,2012/2/6,11:02:00,33-34.3600N,136-50.1200E,197,17.122,34.6681
3092,2012/2/6,11:03:00,33-34.1800N,136-50.0600E,197,17.132,34.6581
3093,2012/2/6,11:04:00,33-34.0200N,136-49.9900E,201,17.133,34.6561
3094,2012/2/6,11:05:00,33-33.8500N,136-49.9000E,203,17.136,34.6619
3095,2012/2/6,11:06:00,33-33.6800N,136-49.8100E,204,17.145,34.66
3096,2012/2/6,11:07:00,33-33.5100N,136-49.7200E,204,17.164,34.6518
3097,2012/2/6,11:08:00,33-33.3400N,136-49.6300E,204,17.17,34.6649
3098,2012/2/6,11:09:00,33-33.1700N,136-49.5300E,205,17.173,34.6669
3099,2012/2/6,11:10:00,33-33.0000N,136-49.4400E,204,17.173,34.6696
3100,2012/2/6,11:11:00,33-32.8400N,136-49.3500E,203,17.161,34.6712
3101,2012/2/6,11:12:00,33-32.6700N,136-49.2600E,203,17.16,34.6652
3102,2012/2/6,11:13:00,33-32.5000N,136-49.1700E,204,17.155,34.6587
3103,2012/2/6,11:14:00,33-32.3500N,136-49.0900E,205,17.138,34.6567
3104,2012/2/6,11:15:00,33-32.1900N,136-49.0000E,203,17.122,34.6481
3105,2012/2/6,11:16:00,33-32.0300N,136-48.9100E,205,17.12,34.6303
3106,2012/2/6,11:17:00,33-31.8700N,136-48.8200E,205,17.121,34.6285
3107,2012/2/6,11:18:00,33-31.7100N,136-48.7300E,205,17.111,34.6382
3108,2012/2/6,11:19:00,33-31.5400N,136-48.6300E,205,17.107,34.6257
3109,2012/2/6,11:20:00,33-31.3600N,136-48.5300E,206,17.085,34.6478
3110,2012/2/6,11:21:00,33-31.1900N,136-48.4300E,205,17.071,34.6502
3111,2012/2/6,11:22:00,33-31.0200N,136-48.3500E,199,17.402,34.6449
3112,2012/2/6,11:23:00,33-30.8300N,136-48.2900E,193,17.606,34.6264
3113,2012/2/6,11:24:00,33-30.6400N,136-48.2400E,192,17.694,34.6093
3114,2012/2/6,11:25:00,33-30.4600N,136-48.2000E,190,17.735,34.6129
3115,2012/2/6,11:26:00,33-30.2700N,136-48.1600E,189,17.761,34.6086
3116,2012/2/6,11:27:00,33-30.0900N,136-48.1200E,191,17.763,34.6154
3117,2012/2/6,11:28:00,33-29.9100N,136-48.0800E,191,17.792,34.5988
3118,2012/2/6,11:29:00,33-29.7300N,136-48.0400E,191,17.811,34.5907
3119,2012/2/6,11:30:00,33-29.5500N,136-47.9900E,191,17.826,34.5929
3120,2012/2/6,11:31:00,33-29.3700N,136-47.9600E,188,17.818,34.5932
3121,2012/2/6,11:32:00,33-29.2000N,136-47.9300E,188,17.823,34.586
3122,2012/2/6,11:33:00,33-29.0300N,136-47.9000E,188,17.838,34.5653
3123,2012/2/6,11:34:00,33-28.8600N,136-47.8600E,191,17.832,34.5705
3124,2012/2/6,11:35:00,33-28.7000N,136-47.8300E,188,17.796,34.566
3125,2012/2/6,11:36:00,33-28.5400N,136-47.8000E,190,17.764,34.5495
3126,2012/2/6,11:37:00,33-28.3800N,136-47.7600E,189,17.758,34.524
3127,2012/2/6,11:38:00,33-28.2100N,136-47.7300E,189,17.759,34.5279
3128,2012/2/6,11:39:00,33-28.0400N,136-47.7000E,188,17.749,34.5533
3129,2012/2/6,11:40:00,33-27.8700N,136-47.6700E,187,17.744,34.5622
3130,2012/2/6,11:41:00,33-27.7000N,136-47.6400E,186,17.759,34.57
3131,2012/2/6,11:42:00,33-27.5400N,136-47.6200E,186,17.871,34.58
3132,2012/2/6,11:43:00,33-27.3700N,136-47.6000E,187,17.988,34.6001
3133,2012/2/6,11:44:00,33-27.2000N,136-47.5800E,185,18.053,34.6201
3134,2012/2/6,11:45:00,33-27.0400N,136-47.5600E,186,18.088,34.6221
3135,2012/2/6,11:46:00,33-26.8800N,136-47.5300E,187,18.114,34.6272
3136,2012/2/6,11:47:00,33-26.7000N,136-47.5100E,188,18.145,34.6233
3137,2012/2/6,11:48:00,33-26.5400N,136-47.4800E,185,18.2,34.6174
3138,2012/2/6,11:49:00,33-26.3800N,136-47.4600E,188,18.23,34.623
3139,2012/2/6,11:50:00,33-26.2200N,136-47.4300E,187,18.259,34.634
3140,2012/2/6,11:51:00,33-26.0500N,136-47.4100E,187,18.286,34.6375
3141,2012/2/6,11:52:00,33-25.8900N,136-47.3800E,188,18.279,34.6465
3142,2012/2/6,11:53:00,33-25.7400N,136-47.3600E,187,18.282,34.6467
3143,2012/2/6,11:54:00,33-25.5800N,136-47.3300E,187,18.286,34.6447
3144,2012/2/6,11:55:00,33-25.4200N,136-47.3100E,188,18.275,34.644
3145,2012/2/6,11:56:00,33-25.2500N,136-47.2700E,189,18.27,34.6336
3146,2012/2/6,11:57:00,33-25.0900N,136-47.2400E,187,18.26,34.6239
3147,2012/2/6,11:58:00,33-24.9200N,136-47.2100E,187,18.232,34.6167
3148,2012/2/6,11:59:00,33-24.7500N,136-47.1900E,187,18.202,34.6086
3149,2012/2/6,12:00:00,33-24.5800N,136-47.1600E,187,18.158,34.6098
3150,2012/2/6,12:01:00,33-24.4100N,136-47.1300E,187,18.107,34.6113
3151,2012/2/6,12:02:00,33-24.2400N,136-47.1100E,186,18.052,34.6022
3152,2012/2/6,12:03:00,33-24.0700N,136-47.0900E,185,18.067,34.5829
3153,2012/2/6,12:04:00,33-23.9000N,136-47.0600E,188,18.185,34.564
3154,2012/2/6,12:05:00,33-23.7300N,136-47.0300E,189,18.29,34.5717
3155,2012/2/6,12:06:00,33-23.5600N,136-47.0000E,189,18.365,34.593
3156,2012/2/6,12:07:00,33-23.3900N,136-46.9600E,188,18.408,34.6038
3157,2012/2/6,12:08:00,33-23.2200N,136-46.9300E,189,18.488,34.6113
3158,2012/2/6,12:09:00,33-23.0500N,136-46.8900E,189,18.539,34.6383
3159,2012/2/6,12:10:00,33-22.8500N,136-46.8500E,190,18.576,34.6522
3160,2012/2/6,12:11:00,33-22.6800N,136-46.8100E,190,18.613,34.655
3161,2012/2/6,12:12:00,33-22.5000N,136-46.7800E,187,18.664,34.652
3162,2012/2/6,12:13:00,33-22.3300N,136-46.7500E,187,18.684,34.6514
3163,2012/2/6,12:14:00,33-22.1600N,136-46.7200E,189,18.68,34.6517
3164,2012/2/6,12:15:00,33-21.9900N,136-46.6800E,189,18.679,34.6492
3165,2012/2/6,12:16:00,33-21.8100N,136-46.6400E,190,18.663,34.6481
3166,2012/2/6,12:17:00,33-21.6400N,136-46.6100E,189,18.646,34.6463
3167,2012/2/6,12:18:00,33-21.4700N,136-46.5700E,190,18.626,34.653
3168,2012/2/6,12:19:00,33-21.3000N,136-46.5300E,189,18.571,34.6408
3169,2012/2/6,12:20:00,33-21.1300N,136-46.4900E,192,18.529,34.6366
3170,2012/2/6,12:21:00,33-20.9600N,136-46.4400E,193,18.491,34.641
3171,2012/2/6,12:22:00,33-20.7900N,136-46.3900E,194,18.445,34.6419